Location: B?lite?ti
(46.2833°N, 22.7333°E)
Time: 04:52:19
(UTC+00:00)

Cosmos 1939 Rocket - Pass Details

Date: 24 January 2021
Orbit: 531 x 585 km, 97.4° (Epoch: 26 February)

Event Time Altitude Azimuth Distance (km) Brightness Sun altitude
Rises 15:56:03 0° 151° (SSE) 2,790 6.3 -6.2°
Reaches altitude 10° 15:58:16 10° 145° (SE) 1,890 5.4 -6.5°
Maximum altitude 16:02:12 46° 72° (ENE) 776 3.2 -7.2°
Drops below altitude 10° 16:06:06 10° 359° (N) 1,879 5.4 -7.8°
Sets 16:08:17 0° 353° (N) 2,772 6.3 -8.2°
